This is the latest recevied weather packets stored in our database for station/object KJ5JYX. If no packets are shown the sender has not sent any weather packets the latest 10 day(s).
| Time | Temp. | Humidity | Pressure | Rain* | Wind** | Luminosity | Snow |
|---|---|---|---|---|---|---|---|
| 1778173998 | 15.56° C | 86% | 1019.9 hPa | 0 mm | - | 104 W/m² | - |
| 1778173695 | 15° C | 86% | 1019.5 hPa | 0 mm | - | 76 W/m² | - |
| 1778173391 | 15.56° C | 85% | 1020 hPa | 0 mm | - | 60 W/m² | - |
| 1778173088 | 15.56° C | 86% | 1019.6 hPa | 0 mm | - | 58 W/m² | - |
| 1778172177 | 15° C | 85% | 1019.9 hPa | 0 mm | - | 58 W/m² | - |
| 1778171874 | 15° C | 84% | 1020.1 hPa | 0 mm | - | 61 W/m² | - |
| 1778171571 | 15° C | 84% | 1020 hPa | 0 mm | - | 59 W/m² | - |
| 1778170963 | 15° C | 85% | 1019.9 hPa | 0 mm | - | 65 W/m² | - |
| 1778170357 | 15° C | 84% | 1019.8 hPa | 0 mm | - | 50 W/m² | - |
| 1778170052 | 15° C | 84% | 1020.5 hPa | 0 mm | - | 56 W/m² | - |
| 1778169749 | 15.56° C | 85% | 1020.9 hPa | 0 mm | - | 57 W/m² | - |
| 1778169445 | 15.56° C | 85% | 1021.1 hPa | 0 mm | - | 68 W/m² | - |
| 1778168232 | 15° C | 83% | 1021.2 hPa | 0 mm | - | 86 W/m² | - |
| 1778167929 | 15° C | 85% | 1020.8 hPa | 0 mm | - | 85 W/m² | - |
| 1778167321 | 15° C | 84% | 1020.6 hPa | 0 mm | - | 83 W/m² | - |
| 1778167017 | 15° C | 85% | 1020.6 hPa | 0 mm | - | 90 W/m² | - |
| 1778166714 | 15° C | 85% | 1020.2 hPa | 0 mm | - | 116 W/m² | - |
| 1778166411 | 15° C | 85% | 1020.1 hPa | 0 mm | - | 121 W/m² | - |
| 1778165501 | 15° C | 86% | 1020.3 hPa | 0 mm | - | 66 W/m² | - |
| 1778164592 | 15° C | 86% | 1020.8 hPa | 0 mm | - | 74 W/m² | - |
| 1778164289 | 15° C | 86% | 1021.3 hPa | 0 mm | - | 61 W/m² | - |
| 1778163378 | 15° C | 86% | 1020.8 hPa | 0 mm | - | 80 W/m² | - |
| 1778163075 | 15° C | 86% | 1021.3 hPa | 0 mm | - | 62 W/m² | - |
| 1778161559 | 14.44° C | 88% | 1019.9 hPa | 0 mm | - | 86 W/m² | - |
| 1778161255 | 14.44° C | 88% | 1020.3 hPa | 0 mm | - | 44 W/m² | - |
* Rain latest hour (hover to see other rain measurements)
** Current wind speed in m/s (hover to see current wind gust speed)